Lid_Strength_Index
9 9 10 12 13 12 14 16 16 14 11 9 7 7 7 6 6 6 5 4 4 4 3 3 3 3 2 2 2 2 2 1
9 9 10 12 11 14 14 17 18 15 14 12 10 9 7 8 7 7 6 5 4 4 3 3 2 2 2 2 2 2 2 1
11 12 13 12 14 14 15 16 17 17 15 10 9 8 8 8 7 6 6 5 5 4 3 3 2 2 2 2 2 2 2 2
13 9 9 11 14 15 17 17 17 16 14 10 7 7 7 8 7 5 5 5 4 4 3 3 3 3 2 2 2 2 2 2
15 13 11 12 13 13 15 16 17 17 15 8 8 8 7 7 7 6 5 5 4 4 4 3 3 3 3 2 2 2 2 2
16 14 12 12 11 12 14 17 16 15 14 11 9 8 7 7 6 6 6 5 5 4 5 4 3 3 3 3 2 2 2 2
15 12 12 12 12 12 14 13 15 14 13 11 11 8 7 6 6 6 5 5 5 5 4 4 5 4 2 2 2 2 2 2
16 13 13 13 12 12 12 11 12 12 13 10 9 9 8 9 6 6 6 5 4 4 4 4 4 4 3 3 2 2 2 2
18 15 14 16 13 12 12 11 12 14 12 9 9 10 9 8 6 6 5 6 5 4 5 5 4 3 3 3 2 2 2 2
17 17 19 14 11 10 11 9 8 9 8 8 8 6 7 6 8 6 5 6 5 5 5 6 5 4 4 2 3 3 3 3
16 17 14 11 9 10 11 11 8 8 8 7 8 7 7 5 5 5 6 6 5 5 4 4 4 5 3 3 3 3 3 3
15 16 17 13 8 6 7 13 7 7 8 8 9 11 9 6 6 6 5 5 4 4 3 3 3 3 3 3 3 3 3 3
14 15 13 9 7 6 14 13 7 6 7 9 10 9 8 6 6 5 4 4 3 3 4 3 3 3 4 3 4 3 2 2
15 17 17 7 8 12 9 7 6 6 6 7 8 7 7 6 6 6 5 4 3 4 4 3 3 3 3 4 3 2 2 2
12 13 9 7 8 7 7 8 7 7 6 6 6 8 7 6 6 5 4 4 3 4 4 3 3 3 3 3 2 2 3 3
12 10 9 8 7 6 6 7 6 6 6 5 6 6 6 6 6 5 4 4 4 4 4 4 3 3 3 2 2 2 3 3
11 9 9 7 7 6 6 6 6 5 5 6 6 6 5 5 5 5 4 4 4 4 4 4 3 3 3 2 2 3 3 3
12 8 8 8 6 6 6 7 6 6 6 5 5 5 4 4 4 4 4 4 4 4 4 4 4 3 3 3 3 3 3 6
9 7 7 6 5 5 5 5 5 5 4 5 4 5 5 4 4 4 4 4 4 4 4 3 3 3 3 3 3 3 5 6